Location: Newark
(22.3060°N, 114.2134°E)
Time: 21:53:41
(UTC+00:00)

ISS - Visible Passes

Search period start: 20 June 2021 00:00
Search period end: 30 June 2021 00:00
Orbit: 417 x 422 km, 51.6° (Epoch: 20 June)

Date Brightness Start Highest point End Pass type
(mag) Time Alt. Az. Time Alt. Az. Time Alt. Az.
21 Jun -3.4 20:42:34 17° SSW 20:44:57 62° SE 20:48:16 10° NE visible
22 Jun -2.2 19:57:21 27° SE 19:57:35 27° SE 20:00:30 10° ENE visible
23 Jun -2.4 20:45:02 17° W 20:46:49 26° NW 20:49:43 10° NNE visible
24 Jun -3.3 19:59:39 53° NNW 19:59:39 53° NNW 20:02:39 10° NNE visible
25 Jun -0.9 19:14:12 19° NE 19:14:12 19° NE 19:15:15 10° NE visible
26 Jun -1.3 20:01:39 14° NW 20:01:39 14° NW 20:03:16 10° N visible
27 Jun -0.7 19:16:03 14° N 19:16:03 14° N 19:16:41 10° NNE visible
